Theta_e
316 315 315 315 314 314 314 314 314 315 315 315 315 315 316 318 319 320 322 332 340 341 341 342 343 343 343 343 343 344 347 352 351 348 348 345 349 347 346 346 345 344 344 345 338
316 316 315 314 313 313 313 313 314 315 315 315 315 315 316 317 319 322 327 333 337 341 341 341 343 343 344 346 347 347 346 351 345 342 347 345 347 347 346 345 344 344 345 343 340
316 316 315 315 313 313 313 313 314 314 315 315 315 315 315 317 319 334 332 333 333 342 342 342 343 346 345 345 350 344 348 347 345 347 346 346 347 347 346 346 344 345 348 343 346
317 316 316 316 315 313 313 313 314 315 315 315 315 314 315 316 327 333 331 332 331 342 343 343 344 345 345 346 347 349 347 344 345 345 346 346 346 347 346 346 346 344 345 345 347
317 316 317 319 320 318 315 314 314 315 315 315 315 314 315 317 323 329 330 330 330 340 344 343 345 345 349 346 347 350 346 345 347 345 346 346 347 347 345 344 345 345 346 347 347
318 316 317 320 321 321 319 317 315 315 315 315 315 314 315 316 321 330 331 331 330 334 343 344 348 346 348 346 347 348 348 345 345 344 346 347 345 346 345 344 345 346 346 347 346
319 317 317 321 321 321 319 317 316 315 315 315 314 314 315 318 321 326 332 333 331 330 336 344 346 353 352 343 346 348 347 342 343 343 347 344 345 347 345 345 346 345 346 346 346
320 318 318 320 321 323 323 319 315 315 315 314 314 314 316 318 329 329 334 333 333 336 340 345 347 350 352 350 341 341 342 344 344 345 346 342 344 344 345 345 345 345 345 346 346
320 317 319 320 322 322 323 324 322 315 314 314 314 315 317 323 335 337 337 335 336 337 342 346 350 351 349 340 334 333 341 342 343 344 346 343 344 344 343 344 344 344 344 345 345
319 317 319 320 321 323 324 324 326 322 315 317 324 324 321 323 326 333 334 335 338 336 345 344 344 338 326 331 341 336 339 338 342 341 344 346 346 344 342 342 342 342 343 344 343
319 317 319 320 321 323 323 323 327 326 324 323 324 325 326 326 325 325 324 332 339 339 340 342 328 327 332 329 332 332 333 336 338 343 346 346 347 344 341 341 340 341 341 342 342
320 317 319 321 323 324 326 327 327 328 326 328 328 326 326 327 325 323 324 330 334 329 327 326 325 326 325 323 325 326 330 334 340 345 345 346 347 345 342 340 339 339 340 341 341
321 318 319 322 324 327 328 327 326 326 325 327 327 326 325 325 325 324 323 325 331 330 328 328 328 326 326 322 321 325 332 331 337 346 344 347 344 347 344 341 340 339 339 340 339
321 319 320 323 327 329 328 327 330 329 319 322 323 325 324 323 322 325 325 329 330 331 328 327 326 325 320 320 318 320 323 328 346 342 340 342 343 333 342 343 341 340 339 338 338
321 320 320 325 328 328 326 327 330 328 320 325 322 323 322 322 322 323 329 334 328 326 322 323 323 321 321 322 318 319 320 341 343 333 342 346 345 340 338 341 341 341 340 340 341
322 321 320 322 323 323 325 328 330 324 328 325 322 321 321 321 322 323 325 328 324 325 319 320 321 320 320 321 320 321 321 319 316 316 320 325 344 334 336 340 340 340 343 341 341
322 322 324 323 325 328 328 330 327 329 327 325 322 320 320 321 321 322 322 324 323 319 317 317 323 321 320 322 321 320 318 320 322 321 321 321 343 338 327 329 337 337 340 342 342
322 322 327 328 328 328 328 325 331 333 331 326 322 319 321 318 320 320 319 321 318 317 315 319 325 326 325 322 323 322 319 320 325 322 325 324 328 328 328 339 335 339 348 347 344
322 322 326 329 330 329 330 326 329 330 329 327 324 325 324 322 321 320 319 317 317 316 319 322 325 324 324 325 323 323 321 317 315 317 326 326 329 331 339 346 346 347 346 347 347
323 323 329 328 332 331 323 325 327 327 328 324 326 326 327 326 322 319 319 322 323 316 320 323 326 325 324 324 323 324 318 321 315 323 333 329 332 332 341 347 346 346 345 345 345
323 330 330 329 333 333 324 323 325 327 328 324 325 326 326 326 326 327 326 327 325 324 322 321 322 325 323 324 324 321 320 313 314 317 327 331 331 326 334 341 344 344 345 345 345
329 324 330 331 330 317 322 324 325 326 326 325 325 326 327 327 326 328 329 327 327 324 326 321 319 324 326 320 317 321 320 317 320 322 315 322 330 328 331 335 341 345 344 345 346
331 331 331 328 325 320 322 324 326 326 325 325 327 326 326 327 328 326 327 326 326 325 325 322 318 321 320 320 321 323 322 314 312 313 318 329 332 327 331 335 339 345 345 345 344
328 325 330 328 326 324 324 324 327 329 325 325 325 325 325 325 323 328 327 326 326 324 323 321 314 317 320 322 320 326 325 319 317 318 318 318 322 326 323 338 336 341 345 345 345
328 323 325 323 322 323 321 324 328 330 329 326 326 325 326 326 327 328 325 325 325 325 322 319 323 318 320 319 321 325 326 325 324 321 323 323 319 324 336 335 336 332 342 345 345
321 323 324 324 324 324 321 327 329 328 329 325 326 324 326 326 324 325 326 325 326 324 321 315 322 321 324 323 324 325 324 322 322 319 322 324 337 336 341 343 343 341 341 345 345
315 317 327 322 322 322 323 327 328 326 328 328 327 324 327 325 325 327 326 325 325 325 321 320 317 318 322 320 322 324 324 325 326 324 328 336 334 335 342 341 342 344 341 342 345
Wind_Speed
13 12 11 11 10 9 8 8 8 7 8 9 10 10 8 6 9 10 10 2 12 11 10 10 7 10 5 2 1 2 3 4 3 2 5 10 7 7 7 13 5 8 9 18 37
15 13 11 10 9 8 7 7 6 7 7 8 10 11 8 7 11 12 5 14 13 11 10 9 8 8 2 1 1 3 3 1 5 6 4 5 8 9 4 11 4 8 10 32 38
15 12 11 10 8 7 6 5 5 6 6 7 9 10 8 6 8 3 8 16 12 15 8 5 4 4 2 5 3 1 0 1 6 6 4 1 8 10 11 5 11 20 26 43 38
15 12 10 9 8 6 5 4 3 4 4 5 8 9 8 6 6 6 12 14 12 18 15 9 5 7 5 5 3 4 5 3 1 1 2 2 9 6 6 4 10 19 28 45 40
15 11 9 8 8 7 5 4 2 2 2 4 6 8 7 6 6 10 14 14 15 19 18 10 4 3 4 2 8 2 3 2 1 6 6 9 6 7 5 5 9 22 32 36 36
15 11 8 7 7 6 5 4 2 1 2 3 5 8 7 4 5 10 12 13 14 18 20 16 3 4 2 1 1 12 11 5 9 10 3 7 5 10 4 11 19 24 32 32 36
16 10 7 6 7 7 6 4 2 1 2 3 5 7 8 9 5 12 9 6 9 7 14 17 9 5 8 3 10 7 6 8 6 3 2 3 2 3 17 17 23 20 28 33 33
17 9 5 5 6 7 7 6 3 1 1 3 4 6 5 8 8 15 13 12 13 16 18 7 10 16 9 8 2 1 2 5 6 1 1 5 5 5 17 22 19 22 27 33 34
17 8 3 3 4 6 7 6 5 3 2 2 4 4 2 7 10 14 13 7 10 17 19 14 11 5 5 1 4 4 3 4 7 5 2 2 2 7 15 15 17 18 27 34 35
16 6 2 2 3 6 9 9 4 2 3 2 1 0 4 5 11 14 12 11 7 9 13 11 5 4 3 3 4 4 4 6 6 5 3 4 1 9 18 15 16 17 22 29 35
15 5 1 2 4 7 11 4 5 2 5 6 2 4 3 1 8 11 15 19 9 4 5 7 3 7 12 9 5 3 5 7 4 2 1 3 2 9 17 14 13 19 22 30 37
15 4 1 3 5 8 8 4 6 7 6 5 12 12 10 5 3 7 13 13 9 6 3 2 7 12 4 7 6 5 2 5 2 3 1 7 2 8 16 15 21 23 25 31 30
14 4 1 3 5 6 6 8 15 10 2 4 3 4 3 8 5 12 17 15 5 7 6 6 9 3 4 5 4 3 5 5 4 2 1 3 7 5 9 10 17 22 29 33 36
14 4 1 3 4 6 1 13 16 2 5 4 3 3 7 5 1 9 17 10 1 8 6 6 5 3 4 5 6 2 7 5 9 5 2 3 4 4 4 11 14 25 29 33 37
13 5 4 7 4 5 6 15 12 0 4 1 2 2 5 5 4 6 17 14 7 4 4 7 2 5 4 5 4 8 6 8 4 4 3 1 2 6 4 7 11 19 31 34 36
14 6 5 8 9 8 8 14 4 5 3 3 3 4 4 1 1 4 5 4 1 2 2 8 5 3 6 2 5 6 6 7 6 3 4 2 3 6 1 5 2 14 23 31 36
13 6 5 7 4 6 9 8 5 5 6 3 3 3 3 3 1 2 5 2 3 3 5 7 4 3 4 1 3 7 6 3 4 2 5 4 4 8 9 4 4 9 20 27 32
12 5 5 7 8 8 7 5 7 2 5 5 3 2 3 6 1 2 3 1 2 5 0 2 7 4 5 3 3 4 5 5 1 2 2 3 3 5 6 6 5 5 3 5 12
10 4 3 2 3 3 2 4 5 5 4 5 6 5 4 4 3 3 3 5 4 7 7 2 4 6 1 3 2 1 5 4 7 3 2 3 5 5 6 8 7 6 2 3 6
8 0 3 3 4 3 4 4 4 5 2 2 1 0 2 2 3 3 5 3 2 7 3 4 2 2 6 3 6 1 5 4 4 1 1 4 3 4 3 3 1 5 8 4 9
6 4 9 9 4 1 2 5 5 8 8 5 4 0 1 2 3 2 5 3 4 3 4 4 3 6 3 5 3 5 3 6 5 3 4 1 5 6 6 6 5 6 1 9 11
7 3 7 5 2 2 2 3 5 4 2 3 3 2 2 1 3 2 1 2 0 7 4 2 4 1 1 2 2 2 3 4 5 2 2 3 5 3 5 1 5 9 7 8 12
11 3 6 4 2 2 6 4 3 6 4 3 2 1 1 3 2 1 2 4 4 2 4 4 3 3 7 7 5 6 3 5 4 3 3 4 5 0 3 5 4 3 1 4 8
7 4 5 7 6 3 5 4 6 9 2 6 2 2 3 4 5 1 1 3 3 5 7 5 3 6 5 6 3 2 3 3 4 3 4 5 5 4 6 7 11 7 6 5 6
9 2 3 3 4 3 2 4 4 6 6 8 2 5 1 4 1 0 1 2 4 2 3 4 4 4 5 4 2 3 5 4 6 5 6 4 7 5 6 7 13 12 9 8 7
6 5 5 2 6 3 3 2 3 5 2 6 4 8 2 4 7 8 4 1 3 3 3 2 2 4 2 1 2 4 7 7 6 4 2 4 4 2 7 2 4 2 9 9 6
8 5 4 4 4 1 2 2 2 5 4 2 7 4 2 5 11 4 4 2 2 4 3 3 6 3 5 3 5 4 5 4 4 3 6 5 5 2 2 8 11 9 9 8 7
Wind_Direction
342 335 327 318 309 298 287 276 266 254 234 228 232 242 239 250 265 271 264 131 177 170 140 133 174 152 161 247 163 140 70 148 157 65 286 323 169 140 146 136 140 190 162 175 160
344 340 337 330 321 305 293 279 262 250 235 220 225 235 235 243 267 267 247 178 184 167 143 159 178 166 244 224 43 42 33 176 157 175 221 295 214 153 131 133 109 126 149 160 162
346 344 344 342 338 323 307 286 261 239 232 222 220 227 227 230 276 237 160 180 179 181 162 163 163 156 191 360 37 344 67 125 227 174 234 227 147 165 139 213 199 166 154 163 165
349 346 351 355 357 347 334 311 278 243 231 223 220 221 217 210 181 162 161 176 167 197 191 189 257 347 23 345 341 335 181 223 221 123 325 196 163 117 141 286 244 192 171 165 169
351 349 353 360 6 7 3 348 322 247 225 223 221 214 210 215 237 153 161 177 171 196 214 195 231 325 329 319 312 210 77 141 259 21 79 110 100 133 54 49 151 166 163 164 171
353 353 356 358 2 2 0 350 342 260 208 206 216 210 204 225 216 177 175 183 187 196 217 219 11 230 318 320 230 312 322 330 300 307 258 137 121 137 116 128 141 155 160 168 174
357 355 359 5 15 18 15 357 338 284 183 198 208 206 216 211 194 191 201 208 213 218 220 226 229 348 343 320 246 295 333 344 282 248 270 139 101 93 148 146 140 151 165 173 178
360 4 12 23 30 32 33 29 29 41 169 207 188 195 238 225 187 181 190 198 214 218 223 245 303 275 287 297 350 246 346 337 284 23 200 110 273 131 154 145 150 157 171 177 181
1 12 35 30 20 20 16 10 25 48 90 153 159 192 250 203 189 188 195 185 206 216 229 246 307 249 272 244 357 349 293 248 300 239 47 119 353 146 162 158 158 170 176 184 189
2 17 39 359 356 7 7 353 349 19 106 111 159 263 210 219 218 203 189 202 205 226 252 257 266 288 33 114 235 214 205 264 255 282 175 272 164 157 165 174 176 177 185 196 200
3 15 349 296 328 355 356 5 3 328 258 243 250 281 260 133 197 219 211 204 171 156 169 188 131 223 238 209 237 211 213 237 238 327 29 203 52 175 174 180 182 187 200 206 211
2 5 237 263 317 346 15 53 38 320 312 285 251 253 238 218 163 176 190 178 162 204 218 356 239 243 206 241 234 224 195 250 338 103 204 349 220 172 178 203 191 194 204 216 219
2 358 277 270 314 335 5 17 348 332 196 294 291 264 208 197 195 188 178 186 167 182 194 180 243 315 312 281 173 215 170 208 207 73 14 33 305 166 199 201 195 206 218 219 220
356 353 267 255 297 321 3 354 347 319 64 287 275 221 192 172 220 183 187 179 196 211 192 236 274 233 288 258 136 296 190 160 141 122 212 62 271 315 189 192 198 209 213 223 227
345 322 251 244 275 314 328 345 342 83 66 233 210 159 182 177 140 182 187 190 192 194 116 256 244 234 247 233 158 228 122 152 158 90 88 296 41 268 120 212 213 207 214 219 231
334 311 260 257 277 298 292 327 320 42 33 332 180 167 120 262 357 120 175 193 80 165 316 251 256 238 209 273 196 116 83 48 54 64 0 357 141 297 149 264 171 211 216 216 226
329 297 264 265 286 301 310 323 35 88 353 305 240 144 142 196 281 142 160 160 168 13 0 333 281 277 210 271 358 64 63 4 37 37 219 302 104 258 298 278 221 174 214 230 239
331 275 264 278 281 288 325 48 60 339 267 307 351 98 176 153 216 129 74 270 184 104 335 32 350 11 346 226 189 61 137 144 184 162 272 351 267 280 317 312 131 132 155 196 235
338 266 282 248 261 250 1 56 198 200 253 319 336 46 329 333 133 136 172 206 218 168 170 124 283 311 239 330 54 153 43 166 104 20 75 276 291 322 343 30 55 60 56 323 359
351 143 38 186 156 140 77 224 234 218 208 187 117 339 26 358 102 126 193 198 225 186 188 184 340 325 296 45 31 115 151 40 14 104 79 312 285 233 280 168 279 260 248 3 28
6 105 29 148 153 355 138 236 268 269 225 165 169 197 347 56 95 159 189 233 202 102 105 116 143 290 13 27 323 16 42 52 109 100 146 120 274 219 210 216 231 267 20 38 38
9 66 55 165 56 46 171 206 312 304 346 275 112 128 175 116 81 159 141 243 95 145 144 182 130 196 212 358 291 4 109 107 112 223 83 130 281 261 250 321 357 307 50 55 51
354 0 3 145 107 334 317 308 276 334 329 351 296 336 114 66 89 40 38 13 3 101 150 184 34 18 353 0 355 48 16 110 104 85 185 128 264 316 37 51 10 256 175 85 78
357 13 26 72 55 87 9 344 324 338 281 357 297 114 96 41 33 224 342 355 33 93 110 98 109 148 176 203 182 30 9 91 106 106 180 221 282 301 354 330 309 261 209 158 141
12 45 28 336 355 13 357 352 330 347 353 1 27 29 179 139 58 291 292 329 59 89 69 104 150 176 232 222 189 216 226 193 199 194 160 260 208 277 300 297 296 263 206 190 180
22 10 353 304 311 326 354 11 4 321 292 336 39 320 356 165 182 205 169 223 196 10 76 20 187 166 270 178 218 261 253 236 226 129 263 167 245 290 335 16 36 183 175 191 196
20 360 341 332 342 31 224 324 330 356 280 294 340 330 32 4 311 284 197 180 188 174 157 131 134 107 248 353 5 334 246 219 197 173 155 172 208 66 34 54 55 94 152 140 99